Weather in Devyaternya

Russia / Republic of Tatarstan     56°12′03″N   53°23′42″E
temp.,
°C
wind,
m/s
gust,
m/s
humid.,
%
clouds,
%
prec.,
mm/h
press.,
hPa
HPBL,
m
4 december, sat
sat400:00+1ssw5109477 0.1 1013392
03:00+1s51198100 0.1 1012448
06:00+2s81699100 0.1 1009574
09:00+2ssw9199290 0.4 1008675
12:00+3ssw112287100 0.2 1006956
15:00+2ssw91997100 2.1 1006968
18:00+1sw81698100 3.4 1006868
21:000wsw61087100 4.1 1008591
5 december, sun
sun500:00−1wsw51089100 0.0 1009580
03:00−2wsw5990100 0.0 1010522
06:00−3wsw499240 0.0 1011386
09:00−4wsw599291 0.0 1012563
12:00−3wsw588699 0.1 1013949
15:00−4w488696 0.1 1015414
18:00−7nw4787100 0.1 1018420
21:00−9nnw4582100 0.1 1020422
6 december, mon
mon600:00−10nnw4580100 0.0 1021401
03:00−11nnw3479100 0.0 1022401
06:00−12nnw35825 0.0 1024333
09:00−13nnw34815 0.0 1026302
12:00−12nw34785 0.0 1027372
15:00−12nnw24855 0.0 1028278
18:00−13nnw23885 0.0 1030172
21:00−13n12915 0.0 103192
7 december, tue
tue700:00−13nne12925 0.0 103267
03:00−14nne119152 0.0 103361
06:00−14ene119184 0.0 103448
09:00−13e228712 0.0 103590
12:00−11ese238341 0.0 1035191
15:00−11ese2490100 0.0 1035111
18:00−11ese3789100 0.0 1035209
21:00−10ese4887100 0.0 1034265
8 december, wed
wed800:00−9ese51084100 0.0 1032300
03:00−8ese61285100 0.1 1031326
06:00−7se71491100 0.3 1029380
09:00−5sse71595100 3.1 1027408
12:00−1s71696100 3.6 1025522
15:000s81692100 4.4 1024541
18:00+1ssw71593100 0.0 1025543
21:000ssw61490100 0.0 1025445